When you browse on this site, cookies collect data to enhance your experience and personalize the content and advertising you see.
Visit our Privacy Policy to learn more. By continuing to use the site, you agree to this use of cookies and data.
  • In Hungary
  • List of Countries
  • For 7 days
  • Water Temperature
  • Satellite Maps
  • Weather Map
  • News
  • Weather Widgets
  • user-avatar
    Login

    Hourly Weather Kuchuk Pamash

    Today, 17 November, Saturday

    Time Temperature Precipitation Wind Pressure Humidity
    00:00 -5°C° 0 mm 4 mps 762 mmHg 46%
    01:00 -5°C° 0 mm 4 mps 761 mmHg 50%
    02:00 -4°C° 0 mm 4 mps 761 mmHg 53%
    03:00 -4°C° 0 mm 4 mps 760 mmHg 57%
    04:00 -4°C° 0 mm 4 mps 760 mmHg 60%
    05:00 -4°C° 0 mm 4 mps 759 mmHg 63%
    06:00 -4°C° 0 mm 4 mps 759 mmHg 66%
    07:00 -4°C° 0 mm 4 mps 758 mmHg 67%
    08:00 -4°C° 0 mm 4 mps 758 mmHg 68%
    09:00 -4°C° 0 mm 4 mps 758 mmHg 69%
    10:00 -3°C° 0 mm 4 mps 757 mmHg 68%
    11:00 -3°C° 0 mm 4 mps 756 mmHg 68%
    12:00 -2°C° 0 mm 4 mps 755 mmHg 67%
    13:00 -2°C° 0 mm 4 mps 755 mmHg 68%
    14:00 -2°C° 0 mm 4 mps 754 mmHg 70%
    15:00 -2°C° 0 mm 4 mps 753 mmHg 71%
    16:00 -2°C° 0 mm 4 mps 753 mmHg 73%
    17:00 -3°C° 0 mm 4 mps 752 mmHg 75%
    18:00 -3°C° 0 mm 4 mps 752 mmHg 77%
    19:00 -3°C° 0.1 mm 4 mps 751 mmHg 80%
    20:00 -3°C° 0.1 mm 4 mps 750 mmHg 82%
    21:00 -3°C° 0.1 mm 4 mps 749 mmHg 84%
    22:00 -3°C° 0.2 mm 4 mps 749 mmHg 86%
    23:00 -3°C° 0.2 mm 4 mps 748 mmHg 88%

    Tomorrow, 18 November, Sunday

    Time Temperature Precipitation Wind Pressure Humidity
    00:00 -3°C° 0.2 mm 4 mps 748 mmHg 90%
    01:00 -3°C° 0.5 mm 4 mps 747 mmHg 91%
    02:00 -3°C° 0.5 mm 4 mps 747 mmHg 92%
    03:00 -3°C° 0.5 mm 4 mps 747 mmHg 92%
    04:00 -3°C° 0.3 mm 4 mps 746 mmHg 92%
    05:00 -2°C° 0.3 mm 3 mps 746 mmHg 92%
    06:00 -2°C° 0.3 mm 3 mps 746 mmHg 92%
    07:00 -2°C° 0.1 mm 3 mps 746 mmHg 92%
    08:00 -2°C° 0.1 mm 3 mps 746 mmHg 91%
    09:00 -2°C° 0.1 mm 3 mps 746 mmHg 91%
    10:00 -2°C° 0.1 mm 3 mps 746 mmHg 91%
    11:00 -1°C° 0.1 mm 3 mps 746 mmHg 90%
    12:00 -1°C° 0.1 mm 3 mps 747 mmHg 90%
    13:00 -1°C° 0 mm 2 mps 747 mmHg 91%
    14:00 -1°C° 0 mm 2 mps 747 mmHg 91%
    15:00 -1°C° 0 mm 2 mps 747 mmHg 92%
    16:00 -2°C° 0.1 mm 2 mps 748 mmHg 93%
    17:00 -2°C° 0.1 mm 2 mps 748 mmHg 94%
    18:00 -2°C° 0.1 mm 2 mps 748 mmHg 95%
    19:00 0°C° 0 mm 1 mps 749 mmHg 95%
    20:00 0°C° 0 mm 1 mps 749 mmHg 95%
    21:00 0°C° 0 mm 1 mps 749 mmHg 95%
    22:00 0°C° 0 mm 1 mps 750 mmHg 95%
    23:00 0°C° 0 mm 1 mps 750 mmHg 95%

    Day after tomorrow, 19 November, Monday

    Time Temperature Precipitation Wind Pressure Humidity
    00:00 0°C° 0 mm 1 mps 751 mmHg 96%
    01:00 0°C° 0 mm 1 mps 751 mmHg 96%
    02:00 0°C° 0 mm 1 mps 751 mmHg 96%
    03:00 0°C° 0 mm 1 mps 752 mmHg 96%
    04:00 0°C° 0.1 mm 1 mps 752 mmHg 96%
    05:00 0°C° 0.1 mm 1 mps 753 mmHg 96%
    06:00 -1°C° 0.1 mm 0 mps 753 mmHg 96%
    07:00 -1°C° 0 mm 0 mps 754 mmHg 95%
    08:00 -1°C° 0 mm 0 mps 754 mmHg 94%
    09:00 -1°C° 0 mm 0 mps 755 mmHg 93%
    10:00 0°C° 0 mm 0 mps 756 mmHg 91%
    11:00 0°C° 0 mm 0 mps 756 mmHg 89%
    12:00 0°C° 0 mm 0 mps 757 mmHg 88%
    13:00 0°C° 0 mm 0 mps 757 mmHg 89%
    14:00 0°C° 0 mm 0 mps 757 mmHg 90%
    15:00 -1°C° 0 mm 0 mps 758 mmHg 92%
    16:00 -1°C° 0 mm 0 mps 758 mmHg 92%
    17:00 -1°C° 0 mm 0 mps 759 mmHg 93%
    18:00 -1°C° 0 mm 0 mps 759 mmHg 93%
    19:00 -1°C° 0 mm 0 mps 759 mmHg 93%
    20:00 -1°C° 0 mm 0 mps 759 mmHg 93%
    21:00 -2°C° 0 mm 0 mps 759 mmHg 93%
    22:00 -2°C° 0 mm 0 mps 760 mmHg 94%
    23:00 -2°C° 0 mm 0 mps 760 mmHg 94%

    20 November, Tuesday

    Time Temperature Precipitation Wind Pressure Humidity
    00:00 -1°C° 0 mm 1 mps 760 mmHg 94%
    01:00 0°C° 0 mm 1 mps 760 mmHg 94%
    02:00 0°C° 0 mm 1 mps 760 mmHg 95%
    03:00 0°C° 0 mm 1 mps 760 mmHg 95%
    04:00 0°C° 0 mm 1 mps 760 mmHg 95%
    05:00 0°C° 0 mm 1 mps 760 mmHg 95%
    06:00 0°C° 0 mm 1 mps 760 mmHg 95%
    07:00 0°C° 0 mm 1 mps 760 mmHg 95%
    08:00 0°C° 0 mm 1 mps 760 mmHg 94%
    09:00 -1°C° 0 mm 0 mps 760 mmHg 94%
    10:00 +1°C° 0 mm 1 mps 759 mmHg 93%
    11:00 +1°C° 0 mm 1 mps 759 mmHg 92%
    12:00 +1°C° 0 mm 1 mps 759 mmHg 90%
    13:00 +1°C° 0 mm 1 mps 759 mmHg 92%
    14:00 0°C° 0 mm 1 mps 758 mmHg 93%
    15:00 0°C° 0 mm 1 mps 758 mmHg 95%
    16:00 -1°C° 0 mm 1 mps 758 mmHg 95%
    17:00 -1°C° 0 mm 1 mps 757 mmHg 96%
    18:00 -2°C° 0 mm 1 mps 757 mmHg 96%
    19:00 -4°C° 0 mm 2 mps 757 mmHg 96%
    20:00 -5°C° 0 mm 2 mps 757 mmHg 95%
    21:00 -5°C° 0 mm 2 mps 756 mmHg 95%
    22:00 -5°C° 0 mm 2 mps 756 mmHg 93%
    23:00 -5°C° 0 mm 2 mps 756 mmHg 90%

    21 November, Wednesday

    Time Temperature Precipitation Wind Pressure Humidity
    00:00 -5°C° 0 mm 2 mps 755 mmHg 88%
    01:00 -5°C° 0 mm 2 mps 755 mmHg 84%
    02:00 -5°C° 0 mm 2 mps 755 mmHg 80%
    03:00 -5°C° 0 mm 2 mps 755 mmHg 75%
    04:00 -5°C° 0 mm 2 mps 754 mmHg 74%
    05:00 -5°C° 0 mm 2 mps 754 mmHg 74%
    06:00 -5°C° 0 mm 2 mps 754 mmHg 73%
    07:00 -5°C° 0 mm 2 mps 753 mmHg 74%
    08:00 -4°C° 0 mm 2 mps 753 mmHg 75%
    09:00 -4°C° 0 mm 2 mps 753 mmHg 76%
    10:00 -5°C° 0 mm 3 mps 753 mmHg 78%
    11:00 -4°C° 0 mm 3 mps 753 mmHg 79%
    12:00 -4°C° 0 mm 3 mps 752 mmHg 80%
    13:00 -4°C° 0 mm 3 mps 752 mmHg 83%
    14:00 -4°C° 0 mm 2 mps 752 mmHg 85%
    15:00 -4°C° 0 mm 2 mps 752 mmHg 87%
    16:00 -4°C° 0 mm 2 mps 752 mmHg 89%
    17:00 -5°C° 0 mm 2 mps 751 mmHg 91%
    18:00 -5°C° 0 mm 2 mps 751 mmHg 92%
    19:00 -5°C° 0 mm 2 mps 751 mmHg 93%
    20:00 -5°C° 0 mm 2 mps 751 mmHg 94%
    21:00 -6°C° 0 mm 3 mps 751 mmHg 94%
    22:00 -6°C° 0 mm 3 mps 751 mmHg 94%
    23:00 -6°C° 0 mm 3 mps 751 mmHg 93%

    22 November, Thursday

    Time Temperature Precipitation Wind Pressure Humidity
    00:00 -6°C° 0 mm 3 mps 751 mmHg 93%
    01:00 -7°C° 0 mm 3 mps 751 mmHg 91%
    02:00 -7°C° 0 mm 3 mps 751 mmHg 90%
    03:00 -7°C° 0 mm 2 mps 751 mmHg 88%
    04:00 -7°C° 0 mm 2 mps 751 mmHg 89%
    05:00 -7°C° 0 mm 2 mps 751 mmHg 89%
    06:00 -7°C° 0 mm 2 mps 751 mmHg 90%
    07:00 -7°C° 0 mm 2 mps 751 mmHg 90%
    08:00 -7°C° 0 mm 2 mps 751 mmHg 91%
    09:00 -7°C° 0 mm 2 mps 751 mmHg 91%
    10:00 -6°C° 0 mm 2 mps 751 mmHg 88%
    11:00 -7°C° 0 mm 3 mps 751 mmHg 85%
    12:00 -6°C° 0 mm 3 mps 751 mmHg 81%
    13:00 -6°C° 0 mm 3 mps 750 mmHg 83%
    14:00 -7°C° 0 mm 3 mps 750 mmHg 85%
    15:00 -7°C° 0 mm 3 mps 750 mmHg 87%
    16:00 -8°C° 0 mm 4 mps 749 mmHg 88%
    17:00 -8°C° 0 mm 4 mps 749 mmHg 90%
    18:00 -8°C° 0 mm 4 mps 749 mmHg 91%
    19:00 -8°C° 0.1 mm 5 mps 748 mmHg 90%
    20:00 -7°C° 0.1 mm 5 mps 748 mmHg 89%
    21:00 -7°C° 0.1 mm 5 mps 748 mmHg 88%
    22:00 -7°C° 0 mm 5 mps 748 mmHg 87%
    23:00 -7°C° 0 mm 5 mps 748 mmHg 87%
    Show more